| time (UTC) | temp C | wind direction | speed KPH | gust KPH | rain 1hr cm | rain 24hr cm | rain mn cm | humidity % | barometer mb |
| 20260503040112 | 11 | 178 | 0.0 | 1.6 | 0.00 | 0.00 | 0.00 | 68 | 1020.0 |
| 20260503035049 | 11 | 344 | 1.6 | 1.6 | 0.00 | 0.00 | 0.00 | 68 | 1019.9 |
| 20260503034046 | 11 | 349 | 0.0 | 1.6 | 0.00 | 0.00 | 0.00 | 68 | 1020.0 |
| 20260503033043 | 11 | 340 | 1.6 | 1.6 | 0.00 | 0.00 | 0.00 | 68 | 1020.1 |
| 20260503032139 | 11 | 342 | 0.0 | 3.2 | 0.00 | 0.00 | 0.00 | 67 | 1020.0 |
| 20260503031135 | 12 | 352 | 1.6 | 1.6 | 0.00 | 0.00 | 0.00 | 66 | 1020.1 |
| 20260503030052 | 12 | 353 | 1.6 | 1.6 | 0.00 | 0.00 | 0.00 | 65 | 1020.1 |
| 20260503025049 | 12 | 354 | 1.6 | 3.2 | 0.00 | 0.00 | 0.00 | 64 | 1020.1 |
| 20260503024026 | 12 | 354 | 0.0 | 1.6 | 0.00 | 0.00 | 0.00 | 64 | 1020.2 |
| 20260503023044 | 12 | 343 | 1.6 | 3.2 | 0.00 | 0.00 | 0.00 | 63 | 1020.4 |
| 20260503022041 | 12 | 342 | 1.6 | 3.2 | 0.00 | 0.00 | 0.00 | 63 | 1020.3 |
| 20260503021018 | 12 | 348 | 1.6 | 1.6 | 0.00 | 0.00 | 0.00 | 62 | 1020.4 |
| 20260503020115 | 12 | 356 | 1.6 | 3.2 | 0.00 | 0.00 | 0.00 | 62 | 1020.4 |
| 20260503014150 | 12 | 349 | 1.6 | 3.2 | 0.00 | 0.00 | 0.00 | 61 | 1020.4 |
| 20260503013127 | 13 | 346 | 1.6 | 3.2 | 0.00 | 0.00 | 0.00 | 61 | 1020.4 |
| 20260503012024 | 13 | 354 | 1.6 | 3.2 | 0.00 | 0.00 | 0.00 | 61 | 1020.4 |
| 20260503011022 | 13 | 346 | 1.6 | 3.2 | 0.00 | 0.00 | 0.00 | 61 | 1020.6 |
| 20260503010019 | 13 | 348 | 1.6 | 3.2 | 0.00 | 0.00 | 0.00 | 61 | 1020.6 |
| 20260503005036 | 13 | 350 | 0.0 | 3.2 | 0.00 | 0.00 | 0.00 | 60 | 1020.8 |
| 20260503004034 | 13 | 353 | 0.0 | 1.6 | 0.00 | 0.00 | 0.00 | 60 | 1021.0 |
| 20260503003211 | 13 | 344 | 1.6 | 3.2 | 0.00 | 0.00 | 0.00 | 60 | 1021.0 |
| 20260503002049 | 13 | 358 | 1.6 | 3.2 | 0.00 | 0.00 | 0.00 | 60 | 1021.0 |
| 20260503001207 | 13 | 349 | 1.6 | 3.2 | 0.00 | 0.00 | 0.00 | 59 | 1021.1 |
| 20260503000103 | 13 | 336 | 1.6 | 3.2 | 0.00 | 0.00 | 0.00 | 60 | 1021.2 |
| 20260502235140 | 13 | 343 | 1.6 | 3.2 | 0.00 | 0.00 | 0.00 | 59 | 1021.2 |
| 20260502234017 | 13 | 344 | 1.6 | 3.2 | 0.00 | 0.00 | 0.00 | 59 | 1021.3 |
| 20260502233054 | 13 | 345 | 1.6 | 3.2 | 0.00 | 0.00 | 0.00 | 60 | 1021.4 |
| 20260502232153 | 13 | 355 | 0.0 | 1.6 | 0.00 | 0.00 | 0.00 | 61 | 1021.5 |
| 20260502231029 | 13 | 351 | 1.6 | 3.2 | 0.00 | 0.00 | 0.00 | 60 | 1021.5 |
| 20260502230027 | 13 | 356 | 1.6 | 3.2 | 0.00 | 0.00 | 0.00 | 60 | 1021.6 |
| 20260502225044 | 13 | 6 | 0.0 | 1.6 | 0.00 | 0.00 | 0.00 | 59 | 1021.7 |
| 20260502224020 | 14 | 6 | 0.0 | 1.6 | 0.00 | 0.00 | 0.00 | 59 | 1021.6 |
| 20260502223018 | 14 | 351 | 1.6 | 3.2 | 0.00 | 0.00 | 0.00 | 59 | 1021.5 |
| 20260502222037 | 14 | 350 | 1.6 | 3.2 | 0.00 | 0.00 | 0.00 | 59 | 1021.5 |
| 20260502221133 | 14 | 341 | 1.6 | 3.2 | 0.00 | 0.00 | 0.00 | 59 | 1021.5 |
| 20260502220053 | 15 | 350 | 0.0 | 1.6 | 0.00 | 0.00 | 0.00 | 58 | 1021.5 |
| 20260502215050 | 15 | 352 | 1.6 | 1.6 | 0.00 | 0.00 | 0.00 | 57 | 1021.5 |
| 20260502214107 | 15 | 356 | 1.6 | 3.2 | 0.00 | 0.00 | 0.00 | 56 | 1021.7 |
| 20260502213024 | 15 | 341 | 1.6 | 3.2 | 0.00 | 0.00 | 0.00 | 56 | 1021.7 |
| 20260502212038 | 15 | 343 | 1.6 | 1.6 | 0.00 | 0.00 | 0.00 | 57 | 1021.7 |
| 20260502211035 | 15 | 358 | 0.0 | 1.6 | 0.00 | 0.00 | 0.00 | 57 | 1021.7 |
| 20260502210033 | 15 | 354 | 0.0 | 1.6 | 0.00 | 0.00 | 0.00 | 55 | 1021.9 |
| 20260502205050 | 15 | 0.0 | 0.0 | 0.00 | 0.00 | 0.00 | 55 | 1021.7 | |
| 20260502204047 | 16 | 97 | 1.6 | 11.3 | 0.00 | 0.00 | 0.00 | 52 | 1021.7 |
| 20260502203024 | 16 | 354 | 0.0 | 3.2 | 0.00 | 0.00 | 0.00 | 50 | 1021.7 |
| 20260502202041 | 16 | 345 | 0.0 | 1.6 | 0.00 | 0.00 | 0.00 | 49 | 1021.7 |
| 20260502201139 | 16 | 336 | 1.6 | 3.2 | 0.00 | 0.00 | 0.00 | 51 | 1021.8 |
| 20260502200116 | 16 | 350 | 1.6 | 1.6 | 0.00 | 0.00 | 0.00 | 52 | 1021.8 |
| 20260502195113 | 16 | 0.0 | 0.0 | 0.00 | 0.00 | 0.00 | 51 | 1021.8 | |
| 20260502194111 | 16 | 0.0 | 0.0 | 0.00 | 0.00 | 0.00 | 50 | 1021.7 | |
| 20260502193207 | 17 | 0.0 | 0.0 | 0.00 | 0.00 | 0.00 | 49 | 1021.6 | |
| 20260502192104 | 17 | 0.0 | 0.0 | 0.00 | 0.00 | 0.00 | 47 | 1021.5 | |
| 20260502191021 | 17 | 0.0 | 0.0 | 0.00 | 0.00 | 0.00 | 45 | 1021.5 | |
| 20260502190159 | 18 | 0.0 | 0.0 | 0.00 | 0.00 | 0.00 | 43 | 1021.4 | |
| 20260502185035 | 18 | 0.0 | 0.0 | 0.00 | 0.00 | 0.00 | 43 | 1021.4 | |
| 20260502184212 | 19 | 0.0 | 0.0 | 0.00 | 0.00 | 0.00 | 41 | 1021.2 | |
| 20260502182025 | 21 | 0.0 | 0.0 | 0.00 | 0.00 | 0.00 | 36 | 1021.1 | |
| 20260502181018 | 21 | 0.0 | 0.0 | 0.00 | 0.00 | 0.00 | 33 | 1021.2 | |
| 20260502164213 | 25 | 236 | 3.2 | 9.7 | 0.00 | 0.00 | 0.00 | 28 | 1021.5 |
| 20260502163050 | 24 | 170 | 1.6 | 6.4 | 0.00 | 0.00 | 0.00 | 28 | 1021.4 |
| 20260502162027 | 24 | 311 | 1.6 | 4.8 | 0.00 | 0.00 | 0.00 | 28 | 1021.5 |
| 20260502161024 | 25 | 303 | 1.6 | 6.4 | 0.00 | 0.00 | 0.00 | 27 | 1021.6 |
| 20260502160142 | 25 | 246 | 3.2 | 6.4 | 0.00 | 0.00 | 0.00 | 28 | 1021.7 |
| 20260502152151 | 26 | 263 | 3.2 | 11.3 | 0.00 | 0.00 | 0.00 | 27 | 1022.1 |
| 20260502151028 | 25 | 267 | 1.6 | 6.4 | 0.00 | 0.00 | 0.00 | 28 | 1022.3 |
| 20260502123024 | 23 | 251 | 3.2 | 9.7 | 0.00 | 0.00 | 0.00 | 30 | 1024.3 |
| 20260502122143 | 24 | 288 | 3.2 | 11.3 | 0.00 | 0.00 | 0.00 | 29 | 1024.5 |
| 20260502121059 | 23 | 193 | 3.2 | 9.7 | 0.00 | 0.00 | 0.00 | 29 | 1024.6 |
| 20260502115032 | 23 | 251 | 4.8 | 16.1 | 0.00 | 0.00 | 0.00 | 30 | 1024.9 |
| 20260502114029 | 24 | 231 | 1.6 | 9.7 | 0.00 | 0.00 | 0.00 | 30 | 1025.0 |
| 20260502113208 | 23 | 202 | 1.6 | 4.8 | 0.00 | 0.00 | 0.00 | 31 | 1025.1 |
| 20260502112044 | 23 | 264 | 4.8 | 12.9 | 0.00 | 0.00 | 0.00 | 30 | 1025.4 |
| 20260502111021 | 23 | 211 | 1.6 | 11.3 | 0.00 | 0.00 | 0.00 | 31 | 1025.6 |
| 20260502110019 | 22 | 223 | 3.2 | 11.3 | 0.00 | 0.00 | 0.00 | 32 | 1025.7 |
| 20260502105056 | 23 | 230 | 6.4 | 14.5 | 0.00 | 0.00 | 0.00 | 32 | 1026.0 |
| 20260502104214 | 23 | 193 | 1.6 | 9.7 | 0.00 | 0.00 | 0.00 | 33 | 1026.2 |
| 20260502103031 | 23 | 209 | 1.6 | 6.4 | 0.00 | 0.00 | 0.00 | 33 | 1026.3 |
| 20260502102127 | 23 | 155 | 1.6 | 3.2 | 0.00 | 0.00 | 0.00 | 33 | 1026.3 |
| 20260502101044 | 21 | 285 | 3.2 | 9.7 | 0.00 | 0.00 | 0.00 | 35 | 1026.5 |
| 20260502091048 | 20 | 275 | 1.6 | 6.4 | 0.00 | 0.00 | 0.00 | 39 | 1026.7 |
| 20260502071016 | 16 | 312 | 1.6 | 4.8 | 0.00 | 0.00 | 0.00 | 52 | 1027.6 |
| 20260502070113 | 16 | 340 | 3.2 | 4.8 | 0.00 | 0.00 | 0.00 | 55 | 1027.7 |
| 20260502065131 | 15 | 291 | 1.6 | 3.2 | 0.00 | 0.00 | 0.00 | 56 | 1027.6 |
| 20260502064028 | 15 | 304 | 1.6 | 3.2 | 0.00 | 0.00 | 0.00 | 58 | 1027.6 |
| 20260502063025 | 14 | 304 | 0.0 | 1.6 | 0.00 | 0.00 | 0.00 | 58 | 1027.6 |
| 20260502062022 | 13 | 18 | 0.0 | 1.6 | 0.00 | 0.00 | 0.00 | 59 | 1027.7 |
| 20260502061020 | 12 | 10 | 0.0 | 1.6 | 0.00 | 0.00 | 0.00 | 61 | 1027.5 |
| 20260502060018 | 12 | 0.0 | 0.0 | 0.00 | 0.00 | 0.00 | 65 | 1027.6 | |
| 20260502055054 | 12 | 0.0 | 0.0 | 0.00 | 0.00 | 0.00 | 68 | 1027.7 | |
| 20260502054031 | 11 | 0.0 | 0.0 | 0.00 | 0.00 | 0.00 | 70 | 1027.6 | |
| 20260502053129 | 10 | 0.0 | 0.0 | 0.00 | 0.00 | 0.00 | 74 | 1027.6 | |
| 20260502052027 | 9 | 0.0 | 0.0 | 0.00 | 0.00 | 0.00 | 77 | 1027.4 | |
| 20260502051124 | 9 | 0.0 | 0.0 | 0.00 | 0.00 | 0.00 | 77 | 1027.6 | |
| 20260502050121 | 8 | 0.0 | 0.0 | 0.00 | 0.00 | 0.00 | 76 | 1027.5 | |
| 20260502045019 | 8 | 0.0 | 0.0 | 0.00 | 0.00 | 0.00 | 76 | 1027.4 | |
| 20260502044035 | 8 | 0.0 | 0.0 | 0.00 | 0.00 | 0.00 | 76 | 1027.4 | |
| 20260502043112 | 8 | 0.0 | 0.0 | 0.00 | 0.00 | 0.00 | 76 | 1027.5 | |
| 20260502042029 | 8 | 102 | 0.0 | 1.6 | 0.00 | 0.00 | 0.00 | 76 | 1027.6 |
| 20260502041147 | 8 | 96 | 0.0 | 3.2 | 0.00 | 0.00 | 0.00 | 74 | 1027.4 |